User: anonymous   Login
Location: Unspecified
(0.0000°N, 0.0000°E)
Time: 20:53:32
(UTC+00:00)
Language:

GLOBAL-2 - Orbit

View from above orbital plane
View from above orbital plane
View from above satellite
View from above satellite

Ground track
Ground track

The orbit data is extracted from the following two-line orbital elements,

1 43812U 18099BG  21020.18952254 -.00000058  00000-0 -10562-6 0  9991
2 43812  97.6801  93.9419 0013571 182.2003 177.9161 14.95626599115925
Epoch (UTC): 20 January 2021 04:32:54
Eccentricity: 0.0013571
inclination: 97.6801°
perigee height: 571 km
apogee height: 590 km
right ascension of ascending node: 93.9419°
argument of perigee: 182.2003°
revolutions per day: 14.95626599
mean anomaly at epoch: 177.9161°
orbit number at epoch: 11592

The dashed part of the orbit path shows where the satellite is in the earth's shadow,  

DLR